Location: ??? ?????
(31.3110°N, 31.6341°E)
Time: 18:40:57
(UTC+00:00)

Daily predictions for brighter satellites

Satellite Brightness Start Highest point End
(mag) Time Altitude Azimuth Time Altitude Azimuth Time Altitude Azimuth
Aureole 1 Rocket 4.2 17:13:07 10° NNW 17:18:42 79° WSW 17:25:57 10° S
STARLINK-1124 4.4 17:15:41 10° NNW 17:19:38 41° NE 17:23:33 10° ESE
Milstar 3 Cent rocket 3.6 17:15:38 10° SSW 17:20:53 32° SE 17:29:45 10° E
Cosmos 371 Rocket 3.9 17:18:58 10° SSW 17:23:45 64° WNW 17:28:36 10° N
ISS -3.5 17:20:44 10° NW 17:24:03 61° NE 17:27:23 10° SE
STARLINK-1122 4.2 17:20:37 10° NNW 17:24:37 46° NE 17:28:36 10° ESE
Meteor 2-9 Rocket 4.1 17:22:26 10° N 17:27:44 72° E 17:33:02 10° SSE
Okean 2 Rocket 4.0 17:24:20 10° NNE 17:28:14 30° E 17:32:05 10° SE
STARLINK-1126 4.0 17:25:14 10° NNW 17:29:16 51° NE 17:33:17 10° ESE
Okean 3 3.5 17:26:24 10° S 17:30:41 75° E 17:34:58 10° N
Sich 1 Rocket 3.7 17:26:26 10° N 17:30:58 60° E 17:35:25 10° SSE
H-2A R/B 2.6 17:31:07 10° WSW 17:33:02 21° S 17:37:00 10° SE
Ariane Rocket 3.0 17:29:15 10° SSE 17:34:18 77° ENE 17:39:24 10° N
STARLINK-1082 3.9 17:30:31 10° NW 17:34:36 58° NE 17:38:26 11° SE
NOSS 2-2 (D) 3.4 17:31:10 10° SW 17:34:48 70° WNW 17:38:24 10° NNE
Cosmos 1300 Rocket 4.4 17:31:19 10° NNE 17:35:16 32° E 17:39:12 10° SE
Aureole 2 Rocket 2.2 17:32:25 10° SSW 17:35:32 76° WNW 17:38:31 10° NNE
Resurs 01 Rocket 3.4 17:33:07 10° ESE 17:35:51 16° ENE 17:38:36 10° NNE
STARLINK-1327 4.5 17:34:12 10° SSE 17:36:10 16° SE 17:38:08 10° E
STARLINK-1340 4.5 17:34:30 10° SSE 17:36:28 16° SE 17:38:28 10° E
STARLINK-1356 4.5 17:34:51 10° SSE 17:36:50 16° SE 17:38:51 10° E
STARLINK-1345 4.5 17:35:08 10° SSE 17:37:09 16° SE 17:39:11 10° E
STARLINK-1355 4.5 17:35:28 10° SSE 17:37:30 16° SE 17:39:33 10° E
STARLINK-1321 4.4 17:35:47 10° SSE 17:37:51 16° SE 17:39:54 10° E
Cosmos 1110 Rocket 4.1 17:33:06 10° S 17:38:07 52° ESE 17:43:07 10° NNE
STARLINK-1358 4.4 17:36:09 10° SSE 17:38:13 17° SE 17:40:18 10° E
STARLINK-1332 4.4 17:36:26 10° SSE 17:38:31 17° SE 17:40:36 10° E
STARLINK-1348 4.4 17:36:44 10° SSE 17:38:50 17° SE 17:40:57 10° E
STARLINK-1330 4.4 17:37:04 10° S 17:39:11 17° SE 17:41:18 10° E
STARLINK-1363 4.4 17:37:22 10° S 17:39:30 17° SE 17:41:38 10° E
STARLINK-1100 3.7 17:35:26 10° NW 17:39:33 66° NE 17:43:12 13° SE
BREEZE M DEB (TANK) 3.4 17:37:22 10° WNW 17:39:43 27° SW 17:41:42 10° SSE
STARLINK-1337 4.4 17:37:44 10° S 17:39:52 17° SE 17:42:02 10° E
STARLINK-1342 4.4 17:38:02 10° S 17:40:12 18° SE 17:42:22 10° E
STARLINK-1364 4.3 17:38:21 10° S 17:40:32 18° SE 17:42:43 10° E
STARLINK-1376 4.3 17:38:41 10° S 17:40:52 18° SE 17:43:04 10° E
STARLINK-1360 4.3 17:39:00 10° S 17:41:13 18° SE 17:43:25 10° E
MOS 1 Rocket 3.0 17:37:12 10° NNE 17:41:30 79° ESE 17:45:48 10° S
STARLINK-1361 4.3 17:39:20 10° S 17:41:33 18° SE 17:43:46 10° E
STARLINK-1367 4.3 17:39:36 10° S 17:41:49 18° SE 17:44:04 10° E
STARLINK-1366 4.3 17:39:56 10° S 17:42:12 19° SE 17:44:27 10° E
VEP-3 4.0 17:35:36 10° SW 17:42:24 24° SSE 17:46:26 12° ESE
Cosmos 304 Rocket 3.7 17:38:15 10° SSW 17:43:01 87° ESE 17:47:49 10° NNE
Cosmos 1954 Rocket 4.3 17:37:53 10° NNW 17:43:10 73° WSW 17:48:26 10° S
Cosmos 2151 Rocket 4.5 17:40:10 10° NNE 17:44:14 32° E 17:47:42 13° SE
STARLINK-1083 3.6 17:40:23 10° NW 17:44:32 74° NE 17:47:58 14° SE
Resurs 1-3 4.5 17:44:19 12° SE 17:47:46 33° ENE 17:51:42 10° N
DMSP B5D2-2 4.0 17:42:41 10° NNE 17:47:57 72° ESE 17:53:10 10° S
STARLINK-52 3.3 17:44:46 10° SW 17:47:57 69° NW 17:51:08 10° NE
CZ-2C R/B 3.9 17:43:26 10° S 17:48:52 59° W 17:54:32 10° NNW
STARLINK-1125 3.6 17:45:22 10° NW 17:49:30 83° NE 17:52:46 16° SE
Cosmos 1331 Rocket 4.0 17:44:57 10° S 17:50:01 61° ESE 17:55:07 10° NNE
Cosmos 1378 Rocket 4.3 17:46:50 10° SSE 17:50:45 32° E 17:54:38 10° NNE
Cosmos 1674 Rocket 3.9 17:46:51 10° SSE 17:51:00 44° E 17:55:11 10° NNE
BREEZE-M DEB (TANK) 2.3 17:49:45 10° SSW 17:51:44 37° SE 17:54:51 10° ENE
ASTEX 1 3.8 17:46:59 10° S 17:51:49 64° W 17:56:43 10° NNW
Cosmos 1975 3.9 17:48:02 10° NNW 17:51:52 45° W 17:55:40 10° SSW
STARLINK-1109 3.6 17:50:20 10° NW 17:54:29 88° SW 17:57:32 18° SE
NOSS 3-4 (A) 4.2 17:49:54 10° SSE 17:54:37 25° ESE 17:59:25 10° ENE
NOSS 3-4 (C) 4.3 17:50:02 10° SSE 17:54:44 25° ESE 17:59:30 10° ENE
COSMOS 2455 4.5 17:57:33 13° ESE 17:57:33 13° ESE 18:00:04 10° ENE
STARLINK-1377 4.5 17:55:53 10° S 17:59:09 25° SE 18:02:26 10° ENE
STARLINK-1091 3.6 17:55:18 10° NW 17:59:26 78° SW 18:02:18 19° SE
SJ-6B 2.8 17:56:50 10° S 18:00:31 73° WSW 18:04:15 10° NNW
STARLINK-1353 4.4 18:00:01 10° S 18:03:24 27° SE 18:06:49 10° ENE
Cosmos 1634 Rocket 4.2 17:57:13 10° N 18:03:33 76° W 18:09:51 10° S
Cosmos 1302 Rocket 4.5 17:59:20 10° S 18:04:14 40° E 18:09:09 10° NNE
ASC 2 Rocket 4.5 18:00:24 10° SW 18:04:23 27° SSE 18:07:06 19° ESE
STARLINK-1072 3.8 18:00:20 10° NW 18:04:26 68° SW 18:07:08 21° SSE
SPOT 3 Rocket 3.6 18:02:30 15° SSE 18:06:46 64° ENE 18:11:53 10° N
ARGOS 4.0 18:02:09 10° S 18:07:20 50° W 18:12:34 10° NNW
STARLINK-1375 4.2 18:04:11 10° S 18:07:42 30° SE 18:11:13 10° ENE
STARLINK-1096 3.9 18:05:17 10° NW 18:09:22 60° SW 18:11:53 22° SSE
USA 267 3.8 18:04:18 12° SSE 18:10:12 54° SW 18:16:36 10° NW
STARLINK-1350 4.1 18:08:20 10° SSW 18:11:57 34° SE 18:15:35 10° ENE
FALCON 9 DEB 3.4 18:09:18 10° SW 18:12:42 68° NW 18:16:06 10° NE
H-2A R/B 3.7 18:08:47 10° SSW 18:13:16 32° W 18:17:54 10° NW
CZ-2C R/B 3.1 18:08:00 10° N 18:13:35 68° WNW 18:19:05 10° SSW
Abrixas rocket 3.3 18:11:13 10° NNW 18:13:51 29° NE 18:14:52 23° ENE
STARLINK-1079 4.1 18:10:21 10° NW 18:14:23 53° SW 18:16:43 23° SSE
Sakura Rocket 4.0 18:09:53 10° W 18:15:12 60° S 18:20:03 21° ESE
Cosmos 1943 Rocket 2.0 18:10:15 10° SSW 18:15:45 77° ESE 18:21:20 10° NNE
STARLINK-1352 3.9 18:12:36 10° SSW 18:16:18 38° SE 18:20:00 10° ENE
Cosmos 1975 Rocket 4.5 18:16:38 20° E 18:16:54 20° E 18:20:06 10° NE
STARLINK-1116 4.3 18:15:21 10° NW 18:19:19 47° SW 18:21:29 24° S
STARLINK-1368 3.8 18:16:52 10° SSW 18:20:39 42° SE 18:24:27 10° ENE
GPS 2-04 Rocket1 2.2 18:17:44 10° WNW 18:21:09 79° SSW 18:22:18 39° ESE
ATLAS 2AS CENTAUR R/B 3.1 18:14:17 10° S 18:21:48 54° ESE 18:29:32 10° NE
STARLINK-1369 3.6 18:21:00 10° SSW 18:24:48 47° SE 18:28:38 10° NE
STARLINK-1372 3.5 18:25:19 10° SSW 18:29:11 53° SE 18:33:03 10° NE
STARLINK-1378 3.4 18:29:37 10° SSW 18:33:32 60° SE 18:37:27 10° NE
Cosmos 1656 Rocket 4.3 18:34:10 31° SE 18:35:21 34° ESE 18:40:22 10° NE
STARLINK-1111 4.4 18:32:42 10° NNW 18:36:37 40° NE 18:37:47 32° E
Cosmos 2180 Rocket 4.5 18:30:29 10° N 18:36:50 87° W 18:41:16 20° S
STARLINK-1379 3.3 18:34:01 10° SSW 18:37:57 67° SE 18:41:55 10° NE
STARLINK-1073 4.3 18:37:36 10° NNW 18:41:35 44° NE 18:42:33 37° E
STARLINK-1329 3.3 18:37:39 10° SW 18:41:37 74° SE 18:45:36 10° NE
Lacrosse 5 3.6 18:39:21 10° WNW 18:43:22 24° WSW 18:46:11 15° SSW
USA 238 DEB 4.4 18:38:41 10° NNW 18:45:37 44° NE 18:49:01 28° ESE
USA 238 4.5 18:38:47 10° NNW 18:45:43 44° NE 18:49:07 28° ESE
STARLINK-1362 3.3 18:42:06 10° SW 18:46:05 83° SE 18:50:05 10° NE
STARLINK-1121 4.0 18:42:31 10° NNW 18:46:33 50° NE 18:47:19 43° E
ASTRO E2 3.0 18:43:07 10° W 18:46:55 47° SSW 18:46:59 46° SSW
deb Kosmos-1763 4.4 18:43:40 10° NNW 18:47:11 57° WSW 18:47:55 46° SSW
MetOp-B 4.1 18:46:58 39° SE 18:48:53 66° ENE 18:54:11 10° N
STARLINK-1373 3.4 18:46:34 10° SW 18:50:33 88° NW 18:54:34 10° NE
Cosmos 2369 Rocket 2.3 18:45:10 10° SSW 18:50:49 75° WNW 18:56:29 10° NNE
STARLINK-1106 3.8 18:47:28 10° NW 18:51:33 56° NE 18:52:06 51° ENE
Okean 1 Rocket 2.9 18:48:09 10° N 18:52:34 90° ENE 18:53:39 52° S
Cosmos 2082 Rocket 3.6 18:48:04 10° NW 18:53:02 32° WSW 18:57:05 14° SSW
IGS 5A 3.9 18:53:13 43° ENE 18:53:16 43° ENE 18:57:13 10° N
ATLAS CENTAUR R/B 1.4 18:51:30 24° SSW 18:54:12 83° ESE 18:58:31 10° NNE
STARLINK-1390 3.5 18:51:05 10° SW 18:55:04 80° NW 18:59:04 10° NE
Okean 2 3.2 18:54:47 66° SE 18:55:05 70° E 18:59:13 10° NNE
STARLINK-1112 3.7 18:52:26 10° NW 18:56:32 63° NE 18:56:54 59° ENE
STARLINK-1365 3.8 18:56:35 10° SW 19:00:36 68° NW 19:04:37 10° NE
Nadezhda 4 Rocket 4.4 18:55:00 11° SSW 19:00:49 60° W 19:06:51 10° N
STARLINK-1128 3.5 18:57:22 10° NW 19:01:30 71° NE 19:01:39 70° ENE
STARLINK-1113 3.5 19:02:21 10° NW 19:06:28 80° NE 19:06:28 80° NE
Cosmos 1766 3.4 19:07:25 10° N 19:10:58 67° NNE 19:10:58 67° NNE
STARLINK-1119 3.6 19:07:18 10° NW 19:11:14 80° NW 19:11:14 80° NW
Resurs 01 Rocket 2.9 19:10:21 26° SW 19:12:00 35° W 19:16:05 10° NNW
STARLINK-1338 4.3 19:08:37 10° WSW 19:12:28 50° NW 19:16:19 10° NNE
STARLINK-1114 3.8 19:12:18 10° NW 19:16:02 70° WNW 19:16:02 70° WNW
ATLAS 3B CENTAUR R/B 3.6 18:59:19 10° W 19:17:20 75° S 19:21:14 39° ESE
Spot 2 Rocket 3.4 19:17:24 62° S 19:18:13 79° WSW 19:23:16 10° NNW
SPOT 5 3.6 19:18:40 43° ENE 19:18:47 43° ENE 19:23:49 10° N
CENTAUR R/B 3.7 19:12:48 10° NNW 19:20:49 47° NE 19:24:00 35° ESE
STARLINK-1130 (DARKSAT) 4.0 19:17:16 10° NW 19:20:48 60° WNW 19:20:48 60° WNW
Terra 3.0 19:23:50 30° NE 19:23:50 30° NE 19:27:21 10° N
STARLINK-1084 4.3 19:22:17 10° NW 19:25:36 51° W 19:25:36 51° W
ATLAS 3B R/B 4.3 19:23:24 10° N 19:28:30 21° NE 19:30:52 18° ENE
COSMOS 2455 3.0 19:40:34 41° SW 19:42:43 71° WNW 19:48:44 10° NNE
NOSS 3-2 (C) 4.2 19:36:02 10° NNW 19:43:59 72° ENE 19:46:03 54° ESE
SPOT 1/Viking Rocket 4.0 19:49:53 52° WSW 19:49:56 52° W 19:54:58 10° NNW
Cosmos 1025 Rocket 4.4 19:53:46 35° N 19:53:46 35° N 19:56:19 10° N
Milstar 3 Cent rocket 3.9 19:50:48 10° WSW 19:59:16 76° S 20:18:43 10° E
Cosmos 1486 Rocket 4.4 19:56:59 10° NNW 20:01:30 59° WNW 20:01:30 59° WNW
ERS-1 Rocket 4.2 20:19:08 35° WNW 20:19:08 35° WNW 20:23:01 10° NNW
Cosmos 2098 Rocket 4.5 20:31:46 64° ENE 20:31:46 64° ENE 20:38:32 10° NNE
S3M 4.2 20:32:05 10° N 20:37:28 65° NW 20:37:28 65° NW
Terra 4.2 21:02:43 16° WNW 21:02:43 16° WNW 21:04:23 10° NW
CENTAUR R/B 4.0 21:03:47 10° NW 21:11:10 39° WSW 21:11:10 39° WSW
ATLAS 3B R/B 3.2 21:12:48 10° NW 21:18:06 53° WNW 21:18:06 53° WNW
Cosmos 1980 Rocket 4.5 21:28:20 15° ENE 21:28:20 15° ENE 21:29:29 10° NE
SeaSat 1 4.2 21:24:57 10° N 21:27:49 29° NNW 21:27:49 29° NNW
CZ-4C R/B 3.7 21:46:26 30° N 21:46:26 30° N 21:49:28 10° NNE
Cosmos 2297 Rocket 3.5 21:47:43 10° NNW 21:51:12 37° N 21:51:12 37° N
Lacrosse 4 Rocket 4.4 21:53:54 10° N 21:54:47 14° NNE 21:54:47 14° NNE
Cosmos 1697 Rocket 3.9 22:12:53 38° N 22:12:53 38° N 22:16:26 10° NNE
Resurs 1-4 Rocket 4.4 22:20:49 10° NE 22:22:44 16° ENE 22:22:44 16° ENE
SJ 16-02 4.0 22:21:33 10° NNW 22:22:33 17° NNW 22:22:33 17° NNW
Cosmos 2227 Rocket 3.6 22:25:25 10° NNW 22:28:23 32° NNW 22:28:23 32° NNW
SL-16 R/B 3.9 22:40:52 24° ENE 22:40:52 24° ENE 22:43:54 10° NE
USA 215 4.2 22:40:51 26° E 22:44:06 44° NE 22:50:14 10° NNW
Cosmos 2285 Rocket 4.4 22:41:50 10° N 22:47:05 58° NNE 22:47:05 58° NNE
CZ-2D R/B 3.6 22:50:28 10° NNE 22:53:42 30° ENE 22:53:42 30° ENE
Cosmos 2360 Rocket 4.3 23:02:11 17° E 23:02:11 17° E 23:05:07 10° ENE
Cosmos 2074 Rocket 4.3 23:06:41 61° ENE 23:06:41 61° ENE 23:12:14 10° NNE
Cosmos 1980 Rocket 3.5 23:10:05 33° NW 23:10:05 33° NW 23:14:02 10° N
FALCON 9 R/B 3.1 23:08:52 62° WNW 23:10:18 88° NNE 23:30:05 10° ESE
CZ-4B R/B 4.4 23:20:23 10° NNE 23:24:38 47° ENE 23:24:38 47° ENE
Cosmos 2184 Rocket 4.0 23:31:40 72° NNW 23:31:40 72° NNW 23:37:15 10° N
Cosmos 2263 Rocket 3.1 23:28:00 10° N 23:33:19 43° ENE 23:34:22 39° E
Timation 1 Rocket 4.4 23:27:31 10° NNW 23:33:16 72° NE 23:33:16 72° NE
ADEOS II 3.4 23:29:05 10° NE 23:33:43 31° E 23:33:43 31° E
IRS-1D 4.4 23:32:29 10° NNE 23:37:02 43° E 23:37:02 43° E
Cosmos 1610 Rocket 4.4 23:39:27 78° E 23:39:27 78° E 23:45:37 10° N
NPP 3.8 23:36:43 10° NNE 23:41:23 68° N 23:41:23 68° N
ARIANE 5 R/B 4.3 23:40:13 10° NE 23:43:57 21° E 23:44:42 20° ESE
Cosmos 2322 Rocket 2.2 23:47:53 72° NNW 23:47:53 72° NNW 23:53:01 10° NNE
In-Cosmos 22 Rocket 4.3 23:49:15 69° E 23:49:15 69° E 23:54:43 10° NNE
